| time (UTC) | temp F | wind direction | speed MPH | gust MPH | rain 1hr in | rain 24hr in | rain mn in | humidity % | barometer mb |
| 20260507014220 | 34 | 155 | 5.0 | 8.0 | 0.00 | 0.00 | 0.00 | 85 | 1017.2 |
| 20260507013221 | 34 | 160 | 5.0 | 7.0 | 0.00 | 0.00 | 0.00 | 83 | 1017.3 |
| 20260507012221 | 35 | 164 | 6.0 | 8.0 | 0.00 | 0.00 | 0.00 | 81 | 1017.4 |
| 20260507011221 | 35 | 157 | 5.0 | 6.0 | 0.00 | 0.00 | 0.00 | 81 | 1017.5 |
| 20260507010342 | 35 | 157 | 6.0 | 7.0 | 0.00 | 0.00 | 0.00 | 80 | 1017.6 |
| 20260507005222 | 36 | 161 | 5.0 | 6.0 | 0.00 | 0.00 | 0.00 | 80 | 1017.6 |
| 20260507004222 | 36 | 175 | 5.0 | 7.0 | 0.00 | 0.00 | 0.00 | 80 | 1017.7 |
| 20260507003223 | 36 | 169 | 5.0 | 8.0 | 0.00 | 0.00 | 0.00 | 79 | 1017.7 |
| 20260507002222 | 36 | 172 | 5.0 | 6.0 | 0.00 | 0.00 | 0.00 | 78 | 1017.8 |
| 20260507001216 | 36 | 158 | 4.0 | 6.0 | 0.00 | 0.00 | 0.00 | 78 | 1017.8 |
| 20260507000219 | 0 | 160 | 6.0 | 8.0 | 0.00 | 0.00 | 0.00 | ||
| 20260506235233 | 36 | 143 | 6.0 | 8.0 | 0.00 | 0.00 | 0.00 | 78 | 1017.9 |
| 20260506234234 | 35 | 162 | 6.0 | 7.0 | 0.00 | 0.00 | 0.00 | 77 | 1017.9 |
| 20260506233232 | 35 | 158 | 6.0 | 7.0 | 0.00 | 0.00 | 0.00 | 76 | 1017.9 |
| 20260506232233 | 35 | 165 | 7.0 | 9.0 | 0.00 | 0.00 | 0.00 | 77 | 1017.8 |
| 20260506231227 | 35 | 163 | 6.0 | 8.0 | 0.00 | 0.00 | 0.00 | 78 | 1017.9 |
| 20260506230227 | 34 | 160 | 6.0 | 7.0 | 0.00 | 0.00 | 0.00 | 79 | 1018.0 |
| 20260506225228 | 34 | 134 | 5.0 | 8.0 | 0.00 | 0.00 | 0.00 | 79 | 1017.9 |
| 20260506224228 | 34 | 152 | 6.0 | 7.0 | 0.00 | 0.00 | 0.00 | 78 | 1018.1 |
| 20260506223221 | 0 | 167 | 6.0 | 8.0 | 0.00 | 0.00 | 0.00 | ||
| 20260506222228 | 34 | 143 | 6.0 | 8.0 | 0.00 | 0.00 | 0.00 | 76 | 1018.2 |
| 20260506221248 | 34 | 152 | 6.0 | 8.0 | 0.00 | 0.00 | 0.00 | 77 | 1018.4 |
| 20260506220248 | 35 | 150 | 6.0 | 8.0 | 0.00 | 0.00 | 0.00 | 76 | 1018.4 |
| 20260506215228 | 35 | 157 | 6.0 | 8.0 | 0.00 | 0.00 | 0.00 | 74 | 1018.4 |
| 20260506214228 | 35 | 163 | 3.0 | 5.0 | 0.00 | 0.00 | 0.00 | 74 | 1018.5 |
| 20260506213228 | 36 | 148 | 3.0 | 4.0 | 0.00 | 0.00 | 0.00 | 70 | 1018.5 |
| 20260506212249 | 35 | 159 | 3.0 | 5.0 | 0.00 | 0.00 | 0.00 | 72 | 1018.6 |
| 20260506211230 | 35 | 134 | 2.0 | 4.0 | 0.00 | 0.00 | 0.00 | 73 | 1018.6 |
| 20260506210239 | 35 | 109 | 4.0 | 5.0 | 0.00 | 0.00 | 0.00 | 74 | 1018.7 |
| 20260506205220 | 36 | 139 | 4.0 | 5.0 | 0.00 | 0.00 | 0.00 | 71 | 1018.8 |
| 20260506204223 | 37 | 70 | 2.0 | 3.0 | 0.00 | 0.00 | 0.00 | 64 | 1019.0 |
| 20260506203220 | 35 | 156 | 4.0 | 6.0 | 0.00 | 0.00 | 0.00 | 73 | 1019.1 |
| 20260506202220 | 35 | 115 | 3.0 | 4.0 | 0.00 | 0.00 | 0.00 | 76 | 1019.2 |
| 20260506201223 | 36 | 157 | 3.0 | 3.0 | 0.00 | 0.00 | 0.00 | 72 | 1019.1 |
| 20260506200223 | 36 | 138 | 3.0 | 4.0 | 0.00 | 0.00 | 0.00 | 73 | 1019.2 |
| 20260506195223 | 38 | 177 | 2.0 | 4.0 | 0.00 | 0.00 | 0.00 | 67 | 1019.3 |
| 20260506194224 | 35 | 77 | 1.0 | 3.0 | 0.00 | 0.00 | 0.00 | 75 | 1019.4 |
| 20260506193220 | 35 | 139 | 1.0 | 2.0 | 0.00 | 0.00 | 0.00 | 77 | 1019.4 |
| 20260506192223 | 35 | 113 | 3.0 | 4.0 | 0.00 | 0.00 | 0.00 | 79 | 1019.5 |
| 20260506191221 | 35 | 100 | 3.0 | 4.0 | 0.00 | 0.00 | 0.00 | 79 | 1019.5 |
| 20260506190221 | 36 | 61 | 3.0 | 5.0 | 0.00 | 0.00 | 0.00 | 79 | 1019.6 |
| 20260506185224 | 36 | 54 | 2.0 | 3.0 | 0.00 | 0.00 | 0.00 | 81 | 1019.7 |
| 20260506184221 | 36 | 72 | 1.0 | 2.0 | 0.00 | 0.00 | 0.00 | 80 | 1019.7 |
| 20260506183224 | 35 | 77 | 2.0 | 2.0 | 0.00 | 0.00 | 0.00 | 82 | 1020.0 |
| 20260506182225 | 34 | 24 | 4.0 | 4.0 | 0.00 | 0.00 | 0.00 | 86 | 1019.9 |
| 20260506181225 | 34 | 96 | 2.0 | 2.0 | 0.00 | 0.00 | 0.00 | 86 | 1019.9 |
| 20260506180245 | 34 | 101 | 1.0 | 2.0 | 0.00 | 0.00 | 0.00 | 86 | 1019.8 |
| 20260506175235 | 35 | 144 | 2.0 | 2.0 | 0.00 | 0.00 | 0.00 | 85 | 1019.8 |
| 20260506174222 | 34 | 135 | 4.0 | 5.0 | 0.00 | 0.00 | 0.00 | 87 | 1019.8 |
| 20260506173255 | 33 | 143 | 2.0 | 3.0 | 0.00 | 0.00 | 0.00 | 87 | 1019.8 |
| 20260506172235 | 32 | 158 | 2.0 | 2.0 | 0.00 | 0.00 | 0.00 | 88 | 1019.7 |
| 20260506171226 | 32 | 164 | 2.0 | 3.0 | 0.00 | 0.00 | 0.00 | 88 | 1019.7 |
| 20260506170226 | 31 | 161 | 2.0 | 2.0 | 0.00 | 0.00 | 0.00 | 89 | 1019.7 |
| 20260506165226 | 31 | 108 | 3.0 | 4.0 | 0.00 | 0.00 | 0.00 | 89 | 1019.5 |
| 20260506164246 | 31 | 133 | 2.0 | 2.0 | 0.00 | 0.00 | 0.00 | 89 | 1019.5 |
| 20260506163226 | 31 | 138 | 1.0 | 2.0 | 0.00 | 0.00 | 0.00 | 89 | 1019.2 |
| 20260506162227 | 32 | 140 | 2.0 | 2.0 | 0.00 | 0.00 | 0.00 | 89 | 1019.0 |
| 20260506161247 | 31 | 153 | 1.0 | 2.0 | 0.00 | 0.00 | 0.00 | 89 | 1018.8 |
| 20260506160227 | 31 | 151 | 1.0 | 2.0 | 0.00 | 0.00 | 0.00 | 89 | 1018.9 |
| 20260506155227 | 31 | 153 | 1.0 | 2.0 | 0.00 | 0.00 | 0.00 | 90 | 1018.8 |
| 20260506154227 | 30 | 147 | 1.0 | 2.0 | 0.00 | 0.00 | 0.00 | 90 | 1018.8 |
| 20260506153228 | 30 | 154 | 1.0 | 1.0 | 0.00 | 0.00 | 0.00 | 90 | 1018.8 |
| 20260506152227 | 30 | 149 | 1.0 | 2.0 | 0.00 | 0.00 | 0.00 | 90 | 1018.6 |
| 20260506151228 | 30 | 133 | 2.0 | 2.0 | 0.00 | 0.00 | 0.00 | 90 | 1018.6 |
| 20260506150248 | 30 | 149 | 1.0 | 2.0 | 0.00 | 0.00 | 0.00 | 90 | 1018.5 |
| 20260506145228 | 30 | 140 | 1.0 | 1.0 | 0.00 | 0.00 | 0.00 | 91 | 1018.4 |
| 20260506144228 | 29 | 154 | 1.0 | 1.0 | 0.00 | 0.00 | 0.00 | 92 | 1018.4 |
| 20260506143228 | 29 | 134 | 1.0 | 2.0 | 0.00 | 0.00 | 0.00 | 92 | 1018.4 |
| 20260506142249 | 29 | 141 | 1.0 | 2.0 | 0.00 | 0.00 | 0.00 | 92 | 1018.3 |
| 20260506141229 | 29 | 126 | 1.0 | 2.0 | 0.00 | 0.00 | 0.00 | 92 | 1018.2 |
| 20260506140229 | 29 | 149 | 1.0 | 1.0 | 0.00 | 0.00 | 0.00 | 93 | 1018.2 |
| 20260506135229 | 30 | 150 | 1.0 | 1.0 | 0.00 | 0.00 | 0.00 | 93 | 1018.2 |
| 20260506134229 | 30 | 144 | 1.0 | 1.0 | 0.00 | 0.00 | 0.00 | 94 | 1018.1 |
| 20260506133229 | 30 | 144 | 1.0 | 1.0 | 0.00 | 0.00 | 0.00 | 94 | 1018.0 |
| 20260506132230 | 30 | 140 | 1.0 | 2.0 | 0.00 | 0.00 | 0.00 | 94 | 1017.8 |
| 20260506131230 | 29 | 140 | 1.0 | 2.0 | 0.00 | 0.00 | 0.00 | 94 | 1017.7 |
| 20260506130230 | 29 | 141 | 1.0 | 1.0 | 0.00 | 0.00 | 0.00 | 94 | 1017.6 |
| 20260506125239 | 29 | 140 | 1.0 | 2.0 | 0.00 | 0.00 | 0.00 | 94 | 1017.4 |
| 20260506124319 | 29 | 136 | 1.0 | 2.0 | 0.00 | 0.00 | 0.00 | 94 | 1017.2 |
| 20260506123259 | 29 | 134 | 1.0 | 2.0 | 0.00 | 0.00 | 0.00 | 94 | 1017.0 |
| 20260506122239 | 28 | 144 | 1.0 | 1.0 | 0.00 | 0.00 | 0.00 | 94 | 1017.1 |
| 20260506121300 | 28 | 136 | 1.0 | 1.0 | 0.00 | 0.00 | 0.00 | 94 | 1017.1 |
| 20260506120251 | 28 | 137 | 1.0 | 2.0 | 0.00 | 0.00 | 0.00 | 94 | 1017.1 |
| 20260506115231 | 28 | 139 | 1.0 | 2.0 | 0.00 | 0.00 | 0.00 | 94 | 1016.9 |
| 20260506114231 | 28 | 141 | 1.0 | 1.0 | 0.00 | 0.00 | 0.00 | 94 | 1016.9 |
| 20260506113216 | 28 | 140 | 1.0 | 1.0 | 0.00 | 0.00 | 0.00 | 94 | 1016.8 |
| 20260506112217 | 28 | 141 | 1.0 | 1.0 | 0.00 | 0.00 | 0.00 | 94 | 1016.8 |
| 20260506111228 | 28 | 143 | 1.0 | 1.0 | 0.00 | 0.00 | 0.00 | 94 | 1016.7 |
| 20260506110241 | 28 | 141 | 1.0 | 1.0 | 0.00 | 0.01 | 0.00 | 94 | 1016.5 |
| 20260506105241 | 28 | 140 | 1.0 | 1.0 | 0.00 | 0.01 | 0.00 | 94 | 1016.6 |
| 20260506104232 | 28 | 143 | 1.0 | 1.0 | 0.00 | 0.01 | 0.00 | 94 | 1016.6 |
| 20260506103217 | 28 | 139 | 1.0 | 1.0 | 0.00 | 0.01 | 0.00 | 94 | 1016.5 |
| 20260506102217 | 28 | 139 | 1.0 | 2.0 | 0.00 | 0.01 | 0.00 | 94 | 1016.6 |
| 20260506101218 | 28 | 136 | 1.0 | 2.0 | 0.00 | 0.02 | 0.00 | 94 | 1016.7 |
| 20260506100218 | 28 | 137 | 1.0 | 1.0 | 0.00 | 0.02 | 0.00 | 94 | 1016.7 |
| 20260506095218 | 28 | 138 | 1.0 | 1.0 | 0.00 | 0.02 | 0.00 | 94 | 1016.7 |
| 20260506094218 | 28 | 146 | 1.0 | 1.0 | 0.00 | 0.03 | 0.00 | 94 | 1016.7 |
| 20260506093217 | 28 | 144 | 1.0 | 1.0 | 0.00 | 0.03 | 0.00 | 94 | 1016.6 |
| 20260506092217 | 28 | 165 | 1.0 | 2.0 | 0.00 | 0.03 | 0.00 | 94 | 1016.5 |
| 20260506091217 | 29 | 131 | 1.0 | 2.0 | 0.00 | 0.04 | 0.00 | 94 | 1016.5 |
| 20260506090222 | 29 | 119 | 2.0 | 3.0 | 0.00 | 0.04 | 0.00 | 94 | 1016.3 |
| 20260506085226 | 29 | 139 | 1.0 | 2.0 | 0.00 | 0.04 | 0.00 | 94 | 1016.3 |
| 20260506084228 | 29 | 148 | 1.0 | 1.0 | 0.00 | 0.04 | 0.00 | 94 | 1016.4 |
| 20260506083226 | 29 | 157 | 1.0 | 1.0 | 0.00 | 0.04 | 0.00 | 95 | 1016.4 |
| 20260506082227 | 29 | 146 | 1.0 | 2.0 | 0.00 | 0.04 | 0.00 | 95 | 1016.4 |
| 20260506081227 | 29 | 141 | 1.0 | 2.0 | 0.00 | 0.04 | 0.00 | 94 | 1016.4 |
| 20260506080247 | 29 | 153 | 1.0 | 1.0 | 0.00 | 0.04 | 0.00 | 95 | 1016.4 |
| 20260506073227 | 30 | 149 | 1.0 | 1.0 | 0.00 | 0.04 | 0.00 | 95 | 1016.4 |
| 20260506072227 | 30 | 147 | 1.0 | 1.0 | 0.00 | 0.04 | 0.00 | 95 | 1016.5 |
| 20260506071248 | 30 | 129 | 2.0 | 2.0 | 0.00 | 0.04 | 0.00 | 95 | 1016.4 |
| 20260506070227 | 30 | 143 | 1.0 | 1.0 | 0.00 | 0.04 | 0.00 | 95 | 1016.4 |
| 20260506062249 | 30 | 145 | 1.0 | 2.0 | 0.00 | 0.04 | 0.00 | 95 | 1016.1 |
| 20260506061220 | 30 | 150 | 1.0 | 2.0 | 0.00 | 0.04 | 0.00 | 95 | 1016.0 |
| 20260506060220 | 30 | 144 | 1.0 | 1.0 | 0.00 | 0.04 | 0.00 | 95 | 1015.9 |
| 20260506051221 | 30 | 146 | 1.0 | 2.0 | 0.00 | 0.04 | 0.04 | 94 | 1016.0 |
| 20260506050221 | 30 | 144 | 1.0 | 1.0 | 0.00 | 0.04 | 0.04 | 94 | 1015.8 |
| 20260506044221 | 30 | 142 | 1.0 | 1.0 | 0.00 | 0.04 | 0.04 | 94 | 1015.6 |
| 20260506043301 | 30 | 136 | 1.0 | 2.0 | 0.00 | 0.04 | 0.04 | 94 | 1015.7 |
| 20260506042221 | 30 | 145 | 1.0 | 1.0 | 0.00 | 0.04 | 0.04 | 94 | 1015.7 |
| 20260506041222 | 30 | 144 | 1.0 | 1.0 | 0.00 | 0.04 | 0.04 | 94 | 1015.8 |
| 20260506040222 | 30 | 145 | 1.0 | 1.0 | 0.00 | 0.04 | 0.04 | 94 | 1015.5 |
| 20260506035222 | 30 | 141 | 2.0 | 2.0 | 0.00 | 0.04 | 0.04 | 94 | 1015.7 |
| 20260506034222 | 30 | 145 | 1.0 | 1.0 | 0.00 | 0.04 | 0.04 | 94 | 1015.6 |
| 20260506033222 | 30 | 148 | 2.0 | 2.0 | 0.00 | 0.05 | 0.04 | 94 | 1015.6 |
| 20260506032223 | 30 | 140 | 2.0 | 2.0 | 0.00 | 0.06 | 0.04 | 94 | 1015.4 |
| 20260506031224 | 30 | 142 | 1.0 | 2.0 | 0.00 | 0.08 | 0.04 | 94 | 1015.3 |
| 20260506030223 | 30 | 144 | 1.0 | 2.0 | 0.00 | 0.11 | 0.04 | 94 | 1015.1 |
| 20260506025223 | 30 | 143 | 1.0 | 1.0 | 0.00 | 0.14 | 0.04 | 94 | 1015.0 |
| 20260506024223 | 30 | 144 | 1.0 | 1.0 | 0.00 | 0.18 | 0.04 | 94 | 1014.8 |
| 20260506023223 | 30 | 136 | 2.0 | 2.0 | 0.00 | 0.20 | 0.04 | 94 | 1014.7 |
| 20260506022224 | 30 | 147 | 1.0 | 1.0 | 0.00 | 0.20 | 0.04 | 94 | 1014.4 |
| 20260506021224 | 30 | 119 | 2.0 | 2.0 | 0.00 | 0.20 | 0.04 | 94 | 1014.4 |
| 20260506020224 | 30 | 141 | 2.0 | 2.0 | 0.00 | 0.20 | 0.04 | 94 | 1014.2 |
| 20260506015224 | 30 | 138 | 1.0 | 2.0 | 0.00 | 0.20 | 0.04 | 94 | 1014.1 |